FW4339 Weather Reports


time (UTC)temp
C
wind
direction
speed
KPH
gust
KPH
rain 1hr
cm
rain 24hr
cm
rain mn
cm
humidity
%
barometer
mb
20260508130001 20 0.0 0.0 0.00 0.00 0.00 64 1014.3
20260508124605 20 0.0 0.0 0.00 0.00 0.00 62 1014.7
20260508123001 19 0.0 0.0 0.00 0.00 0.00 62 1015.0
20260508121501 20 0.0 0.0 0.00 0.00 0.00 59 1015.1
20260508120101 21 0.0 0.0 0.00 0.00 0.00 59 1014.7
20260508114557 20 0.0 0.0 0.00 0.00 0.00 60 1015.2
20260508113105 20 0.0 0.0 0.00 0.00 0.00 61 1015.4
20260508111602 20 0.0 0.0 0.00 0.00 0.00 62 1015.7
20260508110056 20 0.0 0.0 0.00 0.00 0.00 58 1015.7
20260508104600 20 0.0 0.0 0.00 0.00 0.00 55 1016.1
20260508103052 20 0.0 0.0 0.00 0.00 0.00 59 1016.1
20260508101550 20 0.0 0.0 0.00 0.00 0.00 59 1016.2
20260508100050 20 0.0 0.0 0.00 0.00 0.00 57 1016.3
20260508094550 20 0.0 0.0 0.00 0.00 0.00 57 1016.6
20260508093055 19 0.0 0.0 0.00 0.00 0.00 59 1016.8
20260508091558 18 0.0 0.0 0.00 0.00 0.00 61 1016.8
20260508090104 18 0.0 0.0 0.00 0.00 0.00 62 1016.6
20260508084550 18 0.0 0.0 0.00 0.00 0.00 65 1016.6
20260508083047 18 0.0 0.0 0.00 0.00 0.00 63 1016.8
20260508081555 19 0.0 0.0 0.00 0.00 0.00 59 1016.7
20260508080050 19 0.0 0.0 0.00 0.00 0.00 55 1016.4
20260508074545 20 0.0 0.0 0.00 0.00 0.00 55 1016.4
20260508073047 19 0.0 0.0 0.00 0.00 0.00 57 1016.5
20260508071554 18 0.0 0.0 0.00 0.00 0.00 63 1016.7
20260508070052 18 0.0 0.0 0.00 0.00 0.00 65 1016.9
20260508064536 18 0.0 0.0 0.00 0.00 0.00 66 1016.9
20260508063032 17 0.0 0.0 0.00 0.00 0.00 68 1016.9
20260508061534 17 0.0 0.0 0.00 0.00 0.00 66 1016.6
20260508060037 17 0.0 0.0 0.00 0.00 0.00 67 1016.1
20260508054539 17 0.0 0.0 0.00 0.00 0.00 66 1015.8
20260508053030 17 0.0 0.0 0.00 0.00 0.00 66 1015.6
20260508051533 17 0.0 0.0 0.00 0.00 0.00 65 1015.5
20260508050025 17 0.0 0.0 0.00 0.00 0.00 63 1015.5
20260508044522 17 0.0 0.0 0.00 0.00 0.00 63 1015.4
20260508043021 17 0.0 0.0 0.00 0.00 0.00 63 1015.2
20260508041517 17 0.0 0.0 0.00 0.00 0.00 62 1014.9
20260508040027 17 0.0 0.0 0.00 0.00 0.00 62 1015.0
20260508034517 17 0.0 0.0 0.00 0.00 0.00 62 1014.9
20260508033010 17 0.0 0.0 0.00 0.00 0.00 65 1014.8
20260508031508 17 0.0 0.0 0.00 0.00 0.00 66 1014.7
20260508030007 17 0.0 0.0 0.00 0.00 0.00 68 1014.9
20260508024507 17 0.0 0.0 0.00 0.00 0.00 70 1015.1
20260508023021 17 0.0 0.0 0.00 0.00 0.00 70 1015.1
20260508021520 17 0.0 0.0 0.00 0.00 0.00 70 1015.1
20260508020019 17 0.0 0.0 0.00 0.00 0.00 71 1015.1
20260508014523 17 0.0 0.0 0.00 0.00 0.00 71 1015.2
20260508013003 17 0.0 0.0 0.00 0.00 0.00 69 1015.2
20260508011502 17 0.0 0.0 0.00 0.00 0.00 69 1015.3
20260508010001 17 0.0 0.0 0.00 0.00 0.00 70 1015.3
20260508004500 17 0.0 0.0 0.00 0.00 0.00 69 1015.4
20260508001605 17 0.0 0.0 0.00 0.00 0.00 68 1015.6
20260507234557 17 0.0 0.0 0.00 0.00 0.00 70 1015.9
20260507233007 17 0.0 0.0 0.00 0.00 0.00 72 1015.9
20260507231505 17 0.0 0.0 0.00 0.00 0.00 73 1016.1
20260507230008 17 0.0 0.0 0.00 0.00 0.00 73 1016.1
20260507224603 17 0.0 0.0 0.00 0.00 0.00 73 1016.1
20260507221550 17 0.0 0.0 0.00 0.00 0.00 72 1016.4
20260507220048 17 0.0 0.0 0.00 0.00 0.00 71 1016.7
20260507214548 17 0.0 0.0 0.00 0.00 0.00 71 1016.8
20260507211551 17 0.0 0.0 0.00 0.00 0.00 70 1016.9
20260507210044 17 0.0 0.0 0.00 0.00 0.00 69 1016.7
20260507204544 17 0.0 0.0 0.00 0.00 0.00 68 1016.7
20260507201549 17 0.0 0.0 0.00 0.00 0.00 69 1016.9
20260507200047 17 0.0 0.0 0.00 0.00 0.00 71 1016.9
20260507194547 17 0.0 0.0 0.00 0.00 0.00 72 1016.9
20260507191544 17 0.0 0.0 0.00 0.00 0.00 72 1016.8
20260507190042 17 0.0 0.0 0.00 0.00 0.00 71 1016.8
20260507184542 17 0.0 0.0 0.00 0.00 0.00 70 1016.7
20260507181541 17 0.0 0.0 0.00 0.00 0.00 70 1016.6
20260507180049 17 0.0 0.0 0.00 0.00 0.00 71 1016.6
20260507174541 17 0.0 0.0 0.00 0.00 0.00 70 1016.6
20260507171539 18 0.0 0.0 0.00 0.00 0.00 67 1016.2
20260507170048 18 0.0 0.0 0.00 0.00 0.00 66 1016.0
20260507164538 18 0.0 0.0 0.00 0.00 0.00 66 1016.3
20260507161549 19 0.0 0.0 0.00 0.00 0.00 64 1016.4
20260507160041 19 0.0 0.0 0.00 0.00 0.00 61 1016.3
20260507154542 20 0.0 0.0 0.00 0.00 0.00 58 1016.4
20260507151539 20 0.0 0.0 0.00 0.00 0.00 54 1016.5
20260507150038 21 0.0 0.0 0.00 0.00 0.00 53 1016.4
20260507144539 21 0.0 0.0 0.00 0.00 0.00 51 1016.3
20260507141538 21 0.0 0.0 0.00 0.00 0.00 55 1016.1
20260507140038 20 0.0 0.0 0.00 0.00 0.00 56 1016.1
20260507134537 20 0.0 0.0 0.00 0.00 0.00 55 1016.0
20260507131543 22 0.0 0.0 0.00 0.00 0.00 52 1016.0